HULIANWANG DIGUI 10J

Last updated on Sat Sep 13 2025 00:02:07 GMT+0000 (Coordinated Universal Time)

1 65313U 25187J 25255.62709927 -.00000114 00000+0 23853-4 0 9993 2 65313 50.0068 138.5650 0006147 336.3081 23.7540 14.03802549 2514
UTC large
Height (km)
Speed (km/s)
/
Latitude / Longitude
Inclination (degrees)
Orbital Period (minutes)
Azimuth
Elevation
Range (km)
Doppler Factor

Next 0 passes for location: London (51.5072 / 0.1276)

Sorry there are no passes over London.